Regional Weather Roundup
Issued by NWS

Home | Current Version | Previous Version | Text Only | Print | Product List | Glossary Off
Versions: 1 2 3 4 5 6 7 8 9 10 11 12 13 14 15 16 17 18 19 20 21 22 23 24 25 26 27 28 29 30 31 32 33 34 35 36 37 38 39 40 41 42 43 44 45 46 47 48 49 50

000
ASUS43 KLSX 181107
RWRMO

WEATHER SUMMARY FOR MISSOURI
NATIONAL WEATHER SERVICE SPRINGFIELD MO
500 AM CST SAT NOV 18 2017

NOTE: "FAIR" INDICATES FEW OR NO CLOUDS BELOW 12,000 FEET WITH NO
       SIGNIFICANT WEATHER AND/OR OBSTRUCTIONS TO VISIBILITY.
       CURRENT SKY AND/OR WEATHER CONDITIONS ARE NOT AVAILABLE FOR
       CHILLICOTHE AND FARMINGTON.

MOZ001>031-035>038-043-044-053-054-181200-
...NORTHERN AND WESTERN MISSOURI...

CITY           SKY/WX    TMP DP  RH WIND       PRES   REMARKS
KANSAS CTY INT CLOUDY    50  49  96 N23G30    29.49R FOG
KANSAS C DTWN  CLOUDY    54  50  86 N14G22    29.48R
LEE`S SUMMIT   LGT RAIN  55  55 100 N21G31    29.44R FOG
ST JOSEPH      LGT RAIN  47  44  90 N24G35    29.58R
CHILLICOTHE      N/A     49  48  97 N14G24    29.47R
KIRKSVILLE     CLOUDY    47  47 100 N20G30    29.43S

$$
MOZ066>068-077>081-088>096-101>105-181200-
...SOUTHWEST MISSOURI...

CITY           SKY/WX    TMP DP  RH WIND       PRES   REMARKS
SPRINGFIELD    CLOUDY    71  61  70 SW21G33   29.42R
JOPLIN         CLOUDY    71  61  70 SW24G33   29.42R
BRANSON        CLOUDY    70  59  68 SW14G22   29.49S

$$
MOZ032>034-039>042-045>050-055>058-069>072-181200-
...CENTRAL MISSOURI...

CITY           SKY/WX    TMP DP  RH WIND       PRES   REMARKS
COLUMBIA       CLOUDY    64  61  90 S7        29.36F
JEFFERSON CITY CLOUDY    67  60  78 E6        29.36F
ROLLA          CLOUDY    67  62  84 S16       29.40F
SEDALIA        CLOUDY    62  62 100 CALM      29.35F
WHITEMAN AFB   CLEAR     58  57  98 N10       29.31S
WARRENSBURG    MOCLDY    57  55  94 N7        29.36R
OSAGE BEACH    PTCLDY    68  61  78 S6        29.38S

$$
MOZ051-052-059>065-181200-
...EAST CENTRAL MISSOURI...

CITY           SKY/WX    TMP DP  RH WIND       PRES   REMARKS
ST LOUIS INTL  CLOUDY    64  61  90 S9        29.41F
SPIRIT OF STL  CLOUDY    65  61  87 S5        29.39F
ST CHARLES     LGT RAIN  58  56  93 E7        29.40F

$$
MOZ072>076-082>087-097>100-106>115-181200-
...SOUTH CENTRAL AND SOUTHEAST MISSOURI...

CITY           SKY/WX    TMP DP  RH WIND       PRES   REMARKS
CAPE GIRARDEAU CLOUDY    65  59  81 S22G32    29.54S
FARMINGTON     CLOUDY    66  61  84 S13G18    29.47F
POPLAR BLUFF   CLOUDY    69  63  81 S22G30    29.52F
WEST PLAINS    CLOUDY    67  62  84 S13G21    29.50S

$$


USA.gov is the U.S. government's official web portal to all federal, state and local government web resources and services.